SVA1422 OEJN-OEMA

Flight info

Callsign SVA1422
Flight time 0h 32m
Altitude 25000
Route DATAP A424 DEGVU
Aircraft A20N/M-SDE2E3FGHIRWXY/LB1

Departure

Time 2026-04-26 00:17
Airport King Abdulaziz International Airport (OEJN)

Arrival

Time 2026-04-26 00:49
Airport Prince Mohammad Bin Abdulaziz Airport (OEMA)
Time Latitude Longitude Altitude Speed Heading
2026-04-25 23:52 21.66677 39.17465 31 ft 0 kts 341°
2026-04-26 00:07 21.66664 39.17470 32 ft 4 kts 340°
2026-04-26 00:08 21.66638 39.17480 30 ft 4 kts 342°
2026-04-26 00:08 21.66614 39.17487 32 ft 3 kts 352°
2026-04-26 00:08 21.66601 39.17488 31 ft 2 kts 32°
2026-04-26 00:08 21.66594 39.17479 31 ft 2 kts 71°
2026-04-26 00:09 21.66591 39.17470 29 ft 0 kts 75°
2026-04-26 00:12 21.66596 39.17488 32 ft 5 kts 72°
2026-04-26 00:12 21.66612 39.17535 30 ft 9 kts 70°
2026-04-26 00:12 21.66638 39.17610 32 ft 12 kts 70°
2026-04-26 00:12 21.66652 39.17702 31 ft 13 kts 110°
2026-04-26 00:13 21.66593 39.17753 32 ft 10 kts 130°
2026-04-26 00:13 21.66596 39.17818 32 ft 7 kts 45°
2026-04-26 00:13 21.66613 39.17873 33 ft 9 kts 75°
2026-04-26 00:13 21.66626 39.17918 33 ft 0 kts 70°
2026-04-26 00:15 21.66628 39.17923 31 ft 2 kts 70°
2026-04-26 00:15 21.66637 39.17950 33 ft 5 kts 70°
2026-04-26 00:15 21.66654 39.17996 35 ft 8 kts 64°
2026-04-26 00:15 21.66703 39.18031 35 ft 10 kts 354°
2026-04-26 00:16 21.66752 39.18010 35 ft 13 kts 338°
2026-04-26 00:16 21.67058 39.17885 34 ft 92 kts 340°
2026-04-26 00:16 21.67908 39.17552 31 ft 164 kts 340°
2026-04-26 00:16 21.69105 39.17070 482 ft 187 kts 339°
2026-04-26 00:17 21.70330 39.16598 1385 ft 188 kts 343°
2026-04-26 00:17 21.71610 39.16313 2385 ft 186 kts 351°
2026-04-26 00:17 21.72929 39.16111 3035 ft 200 kts 350°
2026-04-26 00:17 21.74402 39.15938 3427 ft 226 kts
2026-04-26 00:18 21.75963 39.16471 3908 ft 248 kts 29°
2026-04-26 00:18 21.77468 39.17541 4405 ft 271 kts 37°
2026-04-26 00:18 21.78995 39.18825 5073 ft 283 kts 39°
2026-04-26 00:18 21.80571 39.20156 5281 ft 287 kts 38°
2026-04-26 00:19 21.82136 39.21433 5390 ft 287 kts 37°
2026-04-26 00:19 21.83745 39.22709 5502 ft 288 kts 37°
2026-04-26 00:19 21.85372 39.23975 5614 ft 289 kts 36°
2026-04-26 00:19 21.87007 39.25239 5718 ft 289 kts 36°
2026-04-26 00:20 21.88642 39.26499 5823 ft 290 kts 36°
2026-04-26 00:20 21.90285 39.27766 5857 ft 291 kts 36°
2026-04-26 00:20 21.91932 39.29036 5848 ft 290 kts 36°
2026-04-26 00:20 21.93569 39.30301 5841 ft 289 kts 34°
2026-04-26 00:21 21.95276 39.31455 5910 ft 290 kts 31°
2026-04-26 00:21 21.96984 39.32578 6313 ft 293 kts 31°
2026-04-26 00:21 21.98730 39.33729 7169 ft 293 kts 31°
2026-04-26 00:21 22.00487 39.34890 7997 ft 299 kts 31°
2026-04-26 00:22 22.02279 39.36075 8743 ft 306 kts 32°
2026-04-26 00:22 22.04105 39.37284 9614 ft 309 kts 31°
2026-04-26 00:22 22.05959 39.38512 10287 ft 320 kts 31°
2026-04-26 00:22 22.07925 39.39814 10560 ft 344 kts 31°
2026-04-26 00:23 22.10030 39.41207 10853 ft 363 kts 31°
2026-04-26 00:23 22.12201 39.42646 11543 ft 369 kts 31°
2026-04-26 00:23 22.14404 39.44107 12229 ft 375 kts 31°
2026-04-26 00:23 22.16633 39.45586 12359 ft 375 kts 31°
2026-04-26 00:24 22.18830 39.47043 12464 ft 376 kts 31°
2026-04-26 00:24 22.21086 39.48541 12572 ft 376 kts 31°
2026-04-26 00:24 22.23321 39.50024 12709 ft 377 kts 31°
2026-04-26 00:24 22.25537 39.51495 12918 ft 381 kts 30°
2026-04-26 00:25 22.27808 39.53002 13702 ft 383 kts 30°
2026-04-26 00:25 22.30106 39.54490 14385 ft 387 kts 25°
2026-04-26 00:25 22.32654 39.55396 15033 ft 386 kts
2026-04-26 00:25 22.35322 39.55400 15680 ft 384 kts 347°
2026-04-26 00:26 22.37961 39.54843 16279 ft 388 kts 344°
2026-04-26 00:26 22.40612 39.54241 17002 ft 390 kts 343°
2026-04-26 00:26 22.43292 39.53629 17647 ft 395 kts 343°
2026-04-26 00:26 22.45996 39.53016 18283 ft 399 kts 343°
2026-04-26 00:27 22.48735 39.52403 18858 ft 403 kts 343°
2026-04-26 00:27 22.51483 39.51792 19472 ft 405 kts 343°
2026-04-26 00:27 22.54260 39.51176 20035 ft 409 kts 343°
2026-04-26 00:27 22.57022 39.50564 20600 ft 412 kts 343°
2026-04-26 00:28 22.59849 39.49936 21163 ft 415 kts 343°
2026-04-26 00:28 22.62694 39.49334 21722 ft 421 kts 347°
2026-04-26 00:28 22.65671 39.49207 22244 ft 433 kts 359°
2026-04-26 00:28 22.68676 39.49766 22762 ft 445 kts 12°
2026-04-26 00:29 22.71630 39.50874 23279 ft 451 kts 16°
2026-04-26 00:29 22.74594 39.52033 23737 ft 454 kts 15°
2026-04-26 00:29 22.77570 39.53193 24219 ft 456 kts 15°
2026-04-26 00:29 22.80579 39.54363 24586 ft 459 kts 15°
2026-04-26 00:30 22.83592 39.55533 24681 ft 459 kts 15°
2026-04-26 00:30 22.86562 39.56685 24787 ft 460 kts 15°
2026-04-26 00:30 22.89575 39.57853 24880 ft 461 kts 14°
2026-04-26 00:30 22.92594 39.59026 24939 ft 461 kts 14°
2026-04-26 00:31 22.95624 39.60204 24951 ft 461 kts 14°
2026-04-26 00:31 22.98638 39.61370 24943 ft 458 kts 13°
2026-04-26 00:31 23.01712 39.62258 24949 ft 454 kts
2026-04-26 00:31 23.04824 39.62704 24957 ft 448 kts 358°
2026-04-26 00:32 23.07932 39.62858 24953 ft 447 kts 356°
2026-04-26 00:32 23.11046 39.63017 24954 ft 447 kts 356°
2026-04-26 00:32 23.17267 39.63346 24959 ft 447 kts 356°
2026-04-26 00:33 23.20378 39.63509 24958 ft 447 kts 356°
2026-04-26 00:33 23.23489 39.63672 24963 ft 446 kts 356°
2026-04-26 00:33 23.26554 39.63831 24959 ft 447 kts 356°
2026-04-26 00:33 23.29672 39.63961 24968 ft 450 kts 356°
2026-04-26 00:34 23.32803 39.64122 24987 ft 448 kts 357°
2026-04-26 00:34 23.35908 39.64297 24904 ft 446 kts 357°
2026-04-26 00:34 23.39002 39.64469 24514 ft 444 kts 357°
2026-04-26 00:34 23.42080 39.64636 24018 ft 443 kts 357°
2026-04-26 00:35 23.45166 39.64799 23403 ft 442 kts 358°
2026-04-26 00:35 23.48223 39.64959 22807 ft 438 kts 358°
2026-04-26 00:35 23.51252 39.65118 22244 ft 433 kts 358°
2026-04-26 00:35 23.54251 39.65276 21684 ft 429 kts 358°
2026-04-26 00:36 23.57220 39.65431 21127 ft 425 kts 358°
2026-04-26 00:36 23.60163 39.65585 20567 ft 422 kts 357°
2026-04-26 00:36 23.63085 39.65735 20013 ft 418 kts 357°
2026-04-26 00:36 23.65975 39.65884 19508 ft 414 kts 357°
2026-04-26 00:37 23.68838 39.66029 18982 ft 410 kts 357°
2026-04-26 00:37 23.71686 39.66313 18470 ft 411 kts
2026-04-26 00:37 23.74440 39.66993 18286 ft 401 kts
2026-04-26 00:37 23.77108 39.67703 18148 ft 387 kts
2026-04-26 00:38 23.79679 39.68372 18013 ft 374 kts
2026-04-26 00:38 23.82167 39.69017 17883 ft 361 kts
2026-04-26 00:38 23.84574 39.69642 17758 ft 349 kts
2026-04-26 00:38 23.86892 39.70246 17642 ft 337 kts
2026-04-26 00:39 23.89108 39.70824 17536 ft 326 kts
2026-04-26 00:39 23.91274 39.71391 17413 ft 313 kts
2026-04-26 00:39 23.93364 39.71937 17030 ft 306 kts
2026-04-26 00:39 23.95434 39.72474 16492 ft 305 kts
2026-04-26 00:40 23.97492 39.73006 15980 ft 304 kts
2026-04-26 00:40 23.99544 39.73539 15484 ft 302 kts
2026-04-26 00:40 24.01586 39.74070 14992 ft 301 kts
2026-04-26 00:40 24.03612 39.74598 14544 ft 299 kts
2026-04-26 00:41 24.05642 39.75125 14013 ft 300 kts 10°
2026-04-26 00:41 24.07662 39.75653 13556 ft 297 kts 11°
2026-04-26 00:41 24.09653 39.76176 13104 ft 294 kts 11°
2026-04-26 00:41 24.11657 39.76703 12389 ft 300 kts 11°
2026-04-26 00:42 24.13698 39.77237 11623 ft 309 kts 11°
2026-04-26 00:42 24.15817 39.77792 10861 ft 316 kts 11°
2026-04-26 00:42 24.17983 39.78279 10171 ft 317 kts
2026-04-26 00:42 24.20165 39.78253 9531 ft 311 kts 349°
2026-04-26 00:43 24.22280 39.77811 8887 ft 309 kts 346°
2026-04-26 00:43 24.24386 39.77358 8243 ft 307 kts 347°
2026-04-26 00:43 24.26476 39.76915 7620 ft 305 kts 347°
2026-04-26 00:43 24.28550 39.76476 7007 ft 302 kts 348°
2026-04-26 00:44 24.30582 39.76049 6496 ft 297 kts 349°
2026-04-26 00:44 24.32573 39.75653 6237 ft 282 kts 349°
2026-04-26 00:44 24.34454 39.75258 5821 ft 274 kts 349°
2026-04-26 00:44 24.36299 39.74867 5458 ft 265 kts 349°
2026-04-26 00:45 24.38081 39.74489 5124 ft 256 kts 349°
2026-04-26 00:45 24.39793 39.74125 4799 ft 245 kts 349°
2026-04-26 00:45 24.41389 39.73786 4482 ft 222 kts 349°
2026-04-26 00:45 24.42837 39.73479 4219 ft 201 kts 349°
2026-04-26 00:46 24.44144 39.73201 4000 ft 183 kts 349°
2026-04-26 00:46 24.45338 39.72947 3780 ft 166 kts 349°
2026-04-26 00:46 24.46413 39.72718 3561 ft 150 kts 349°
2026-04-26 00:46 24.47400 39.72508 3384 ft 142 kts 349°
2026-04-26 00:47 24.48384 39.72299 3200 ft 144 kts 349°
2026-04-26 00:47 24.49360 39.72091 3012 ft 143 kts 349°
2026-04-26 00:47 24.50338 39.71883 2823 ft 143 kts 348°
2026-04-26 00:47 24.51311 39.71676 2623 ft 142 kts 348°
2026-04-26 00:48 24.52285 39.71468 2431 ft 142 kts 348°
2026-04-26 00:48 24.53253 39.71262 2243 ft 142 kts 348°
2026-04-26 00:48 24.54218 39.71056 2098 ft 140 kts 348°
2026-04-26 00:48 24.55131 39.70845 2091 ft 124 kts 348°
2026-04-26 00:49 24.55755 39.70722 2098 ft 48 kts 350°
2026-04-26 00:49 24.55956 39.70689 2104 ft 23 kts 355°
2026-04-26 00:49 24.56082 39.70682 2108 ft 15 kts
2026-04-26 00:49 24.56190 39.70712 2110 ft 16 kts 16°
2026-04-26 00:50 24.56274 39.70763 2114 ft 15 kts 53°
2026-04-26 00:50 24.56210 39.70828 2113 ft 18 kts 168°
2026-04-26 00:50 24.56086 39.70856 2109 ft 21 kts 168°
2026-04-26 00:50 24.55963 39.70884 2106 ft 17 kts 168°
2026-04-26 00:51 24.55885 39.70901 2104 ft 10 kts 169°
2026-04-26 00:51 24.55786 39.70921 2102 ft 18 kts 169°
2026-04-26 00:51 24.55637 39.70952 2098 ft 25 kts 169°
2026-04-26 00:51 24.55556 39.70968 2097 ft 6 kts 169°
2026-04-26 00:52 24.55485 39.70982 2095 ft 14 kts 169°
2026-04-26 00:52 24.55372 39.71008 2093 ft 19 kts 166°
2026-04-26 00:52 24.55244 39.71049 2092 ft 18 kts 134°
2026-04-26 00:52 24.55239 39.71156 2092 ft 11 kts 79°
2026-04-26 00:53 24.55245 39.71223 2093 ft 6 kts 104°
2026-04-26 00:53 24.55240 39.71277 2093 ft 8 kts 79°
2026-04-26 00:53 24.55245 39.71304 2093 ft 0 kts 78°
2026-04-26 00:53 24.55248 39.71321 2093 ft 4 kts 79°
2026-04-26 00:54 24.55250 39.71335 2093 ft 0 kts 78°